Vorticity
9 9 11 3 3 -1 6 7 -3 10 15 -5 20 -23 12 0 21 9 -4 -2 135 -18 21 10 10 7 7 7 6 4 4 3 3 6 7 6 7 6 5 5 6 6 5 5 6 5 5 6 5
6 11 -0 7 -5 -2 14 11 9 14 -5 23 -0 -25 32 -14 -30 -11 3 12 33 -4 19 9 11 7 6 6 5 4 3 3 2 8 7 7 7 5 5 7 6 6 5 4 5 4 4 4 5
12 11 8 14 4 -4 -3 33 -26 24 -13 15 2 30 3 8 101 -0 8 -4 33 18 -7 9 7 9 7 6 6 3 3 3 3 9 7 7 6 5 7 6 4 5 5 3 2 4 5 5 5
7 2 -2 5 6 16 12 12 33 -5 1 16 7 1 -2 -29 -44 28 -8 14 -6 41 10 -17 19 6 8 8 4 3 3 3 5 8 7 6 5 7 7 3 5 0 4 6 7 7 6 5 4
-11 0 10 13 -0 6 13 7 -2 7 1 -5 -6 4 7 82 16 8 13 -2 3 19 18 36 5 12 2 1 4 4 3 4 8 7 7 6 5 8 4 4 1 4 5 3 3 6 5 -2 4
9 1 -8 -3 17 24 12 7 3 5 7 3 35 1 -5 -57 1 8 10 11 12 12 14 6 24 4 6 10 5 4 5 6 8 7 7 6 7 5 4 3 2 5 2 3 4 6 6 5 7
4 -1 13 9 15 -1 11 -0 -1 -13 7 4 -7 34 15 33 7 5 7 0 4 9 9 11 19 11 7 5 5 4 6 8 8 7 8 6 7 2 4 1 2 2 4 4 7 8 9 9 6
3 4 3 7 11 47 8 16 14 5 15 14 10 -4 -0 16 9 8 9 11 4 3 10 9 21 15 2 5 6 9 5 2 10 10 7 8 4 4 3 2 1 3 3 6 5 6 7 6 5
9 3 1 3 21 6 12 3 23 8 7 13 11 12 15 5 16 8 8 7 14 15 8 4 14 11 3 15 5 10 9 9 11 8 2 5 2 2 0 1 1 2 2 3 2 -1 4 4 5
7 8 18 11 2 -2 -2 13 0 43 9 11 -37 6 4 5 1 7 9 9 6 8 16 4 7 17 18 42 -2 0 -1 3 6 0 9 3 0 2 3 0 1 1 0 2 2 2 2 7 6
6 2 2 9 9 12 7 3 29 11 27 16 16 47 4 17 13 8 7 4 9 10 13 7 34 -13 -3 14 60 -4 13 -2 4 10 1 5 11 1 3 2 2 1 1 1 2 5 4 7 8
4 1 5 5 -0 10 5 -3 4 -11 -2 10 7 12 9 8 9 11 8 11 9 8 4 7 17 3 -6 30 12 -3 7 -3 5 5 1 3 9 3 1 1 1 1 2 2 4 5 6 6 7
6 4 5 10 13 11 1 -6 27 22 8 9 13 8 35 21 9 8 13 10 3 4 15 14 20 2 22 10 28 8 35 0 -2 4 -2 -14 -6 1 1 0 2 1 2 3 4 5 8 8 8
-5 6 5 9 15 0 11 10 -32 0 4 5 8 12 -2 16 19 15 13 13 11 11 3 10 15 26 49 25 3 19 6 -2 5 12 36 -8 -1 1 1 2 1 1 2 3 3 5 9 9 6
9 5 4 4 5 15 -6 -4 20 3 16 14 10 11 13 19 19 19 32 23 21 21 -11 -4 16 30 23 48 -55 27 46 15 9 10 -1 3 3 2 -0 2 1 2 1 5 5 6 7 7 5
12 6 7 5 4 1 14 -15 15 10 1 9 -2 10 9 32 26 -3 21 46 3 2 22 2 22 56 -4 -29 -3 26 24 26 -11 -3 3 4 1 1 2 3 3 2 4 4 7 6 5 6 5
16 6 1 12 5 -8 -14 -13 42 13 4 7 4 13 -1 28 -14 3 -5 22 27 38 36 39 39 28 33 11 7 45 2 8 -6 7 8 4 4 4 2 4 3 3 2 5 6 7 6 5 5
-8 31 5 33 -2 59 19 7 12 36 1 13 7 2 2 7 -14 2 1 6 -5 -3 2 -5 -1 1 18 44 25 -1 0 -1 -3 4 4 4 4 3 5 3 2 3 2 7 6 5 7 4 4
7 4 1 26 -9 4 14 31 -19 54 6 9 6 4 4 2 8 7 9 7 5 5 9 -2 1 1 -1 -2 -2 -2 0 2 6 5 6 7 5 7 4 3 0 2 3 6 6 8 5 5 4
10 12 10 18 22 -3 7 6 9 29 12 9 -3 -5 14 6 5 4 9 13 11 5 7 9 6 5 5 3 3 6 4 4 3 3 6 6 8 7 6 4 5 6 1 1 3 5 5 5 5
10 8 -8 11 6 4 4 8 31 8 5 6 10 3 -4 9 13 5 9 5 9 11 8 6 6 7 6 7 6 8 7 7 8 9 8 11 6 6 10 6 2 3 4 3 3 4 4 6 3
4 3 9 -0 2 10 -1 5 -7 22 -6 5 6 3 3 9 9 7 7 6 9 9 5 7 5 4 5 6 5 7 6 7 7 4 2 8 8 5 4 5 3 4 7 5 9 9 7 5 9
-1 10 8 5 10 11 -9 10 82 16 10 -1 8 7 6 2 4 8 8 4 1 4 8 8 7 4 4 6 10 4 -0 5 4 2 6 2 4 5 6 5 4 6 4 4 8 6 5 7 11
11 -7 7 7 5 22 12 15 18 22 11 36 -2 9 10 2 7 -2 7 6 5 4 2 4 3 4 4 7 3 6 3 6 5 -7 5 11 3 1 6 7 5 9 12 13 10 7 6 17 8
10 0 20 27 26 5 14 16 47 -0 0 10 48 2 10 13 5 9 -1 4 3 4 6 5 5 5 4 2 5 8 -4 4 5 0 -0 2 -58 83 0 1 -0 5 0 10 13 1 15 14 -12
8 5 -32 7 7 -9 0 17 30 4 2 8 4 -4 44 -3 16 2 7 4 7 7 2 6 6 4 3 3 3 -1 -23 22 29 12 1 -4 -13 9 10 1 7 8 2 14 9 8 17 -13 26
9 7 10 -33 15 -2 8 26 -10 15 9 15 14 13 16 19 25 -1 13 7 -1 6 9 1 2 3 4 5 0 2 11 3 25 4 13 6 4 4 7 10 11 14 18 9 16 2 -1 21 -27
7 4 12 7 4 12 17 1 71 -4 6 5 13 18 17 6 12 17 13 15 8 -0 2 1 7 11 8 6 0 8 15 7 11 8 2 12 2 3 9 7 8 11 8 11 4 14 38 -26 29
11 8 6 3 5 -6 16 25 -3 -6 9 3 12 6 3 0 8 35 14 25 24 5 6 9 4 0 5 10 9 15 5 7 10 2 4 9 8 6 6 3 5 5 5 15 9 17 -3 9 37
6 12 -4 -4 10 15 -7 9 -67 4 2 2 14 8 2 8 -2 13 8 34 20 -2 4 14 8 4 19 12 14 15 17 13 13 8 10 3 7 5 4 6 7 8 14 13 15 -3 20 5 7
Height
3122 3122 3123 3123 3130 3123 3116 3112 3107 3104 3104 3107 3104 3111 3111 3108 3114 3116 3112 3115 3101 3102 3120 3123 3128 3131 3132 3134 3136 3139 3142 3145 3148 3151 3153 3155 3157 3160 3160 3162 3163 3165 3167 3168 3169 3170 3172 3172 3173
3121 3119 3123 3123 3126 3118 3109 3107 3106 3106 3104 3104 3110 3107 3108 3111 3115 3112 3112 3109 3109 3118 3121 3125 3126 3129 3131 3132 3135 3139 3142 3146 3148 3150 3152 3155 3157 3160 3162 3163 3165 3166 3168 3169 3171 3172 3173 3174 3175
3120 3121 3124 3122 3120 3115 3107 3106 3107 3104 3104 3105 3107 3107 3109 3103 3095 3113 3113 3112 3112 3121 3128 3124 3125 3127 3128 3129 3134 3139 3142 3146 3149 3150 3152 3155 3157 3160 3162 3164 3166 3168 3169 3170 3172 3173 3173 3174 3175
3120 3123 3123 3120 3114 3111 3108 3105 3106 3106 3104 3105 3107 3111 3104 3103 3091 3107 3112 3112 3113 3113 3125 3125 3120 3120 3122 3127 3132 3137 3142 3145 3149 3150 3153 3155 3157 3161 3163 3165 3167 3169 3170 3171 3172 3174 3174 3175 3175
3123 3122 3120 3116 3112 3110 3107 3106 3105 3106 3106 3103 3103 3104 3100 3089 3106 3108 3109 3107 3110 3114 3115 3115 3113 3114 3115 3126 3131 3136 3141 3144 3148 3149 3153 3156 3158 3161 3164 3166 3168 3170 3171 3172 3174 3175 3175 3175 3176
3123 3123 3118 3113 3110 3108 3103 3102 3101 3105 3108 3103 3101 3099 3094 3083 3101 3105 3105 3103 3106 3109 3113 3114 3111 3119 3123 3127 3131 3136 3141 3143 3147 3149 3152 3156 3157 3162 3165 3167 3169 3171 3172 3173 3174 3176 3176 3176 3177
3123 3121 3116 3111 3109 3106 3105 3106 3102 3106 3104 3100 3095 3095 3099 3099 3103 3104 3100 3098 3098 3105 3107 3109 3114 3118 3122 3127 3132 3135 3141 3143 3146 3149 3153 3156 3158 3162 3165 3168 3170 3172 3172 3173 3175 3176 3176 3177 3178
3123 3121 3115 3113 3109 3105 3107 3108 3106 3111 3103 3099 3098 3096 3094 3099 3100 3098 3099 3100 3101 3102 3106 3109 3113 3116 3116 3123 3131 3135 3138 3143 3147 3150 3153 3156 3160 3163 3165 3168 3170 3172 3173 3174 3175 3176 3176 3177 3178
3122 3121 3116 3112 3108 3106 3105 3108 3108 3101 3106 3098 3089 3073 3100 3098 3100 3098 3098 3100 3104 3103 3104 3108 3109 3113 3119 3121 3126 3133 3139 3144 3147 3150 3152 3154 3159 3162 3165 3168 3170 3172 3173 3174 3175 3176 3177 3177 3177
3121 3118 3115 3112 3108 3106 3104 3107 3102 3098 3097 3097 3090 3097 3097 3100 3099 3096 3097 3097 3100 3101 3104 3107 3109 3111 3117 3119 3122 3124 3129 3137 3142 3146 3151 3154 3158 3162 3166 3168 3170 3172 3173 3175 3175 3176 3176 3176 3176
3118 3116 3113 3110 3106 3104 3103 3106 3103 3103 3098 3096 3094 3091 3097 3099 3097 3094 3094 3095 3095 3097 3103 3105 3108 3110 3112 3116 3118 3124 3130 3137 3144 3147 3150 3153 3157 3161 3166 3168 3169 3171 3173 3174 3174 3174 3175 3175 3175
3117 3114 3111 3108 3107 3107 3105 3102 3101 3098 3095 3094 3094 3092 3092 3093 3091 3093 3092 3090 3091 3097 3101 3102 3105 3106 3108 3109 3113 3114 3120 3133 3145 3143 3146 3150 3156 3163 3165 3167 3169 3171 3172 3173 3173 3174 3173 3174 3175
3114 3112 3110 3107 3108 3107 3107 3102 3095 3095 3093 3094 3093 3090 3086 3087 3086 3086 3087 3089 3092 3096 3098 3100 3102 3102 3101 3102 3104 3116 3122 3134 3134 3138 3143 3149 3154 3160 3164 3166 3168 3169 3171 3171 3171 3171 3172 3173 3174
3112 3110 3108 3107 3107 3107 3102 3098 3095 3090 3091 3093 3092 3090 3086 3083 3081 3082 3083 3087 3090 3093 3096 3096 3099 3098 3097 3096 3109 3113 3118 3124 3133 3142 3148 3151 3155 3160 3163 3165 3167 3167 3168 3169 3170 3170 3171 3171 3173
3110 3109 3105 3105 3105 3106 3102 3100 3094 3095 3094 3090 3090 3089 3085 3082 3081 3084 3085 3086 3087 3090 3093 3095 3098 3099 3101 3107 3111 3116 3120 3129 3136 3143 3147 3150 3154 3158 3161 3164 3165 3167 3167 3168 3167 3168 3169 3169 3170
3108 3106 3101 3100 3101 3098 3097 3099 3103 3100 3098 3094 3089 3089 3086 3083 3085 3086 3086 3084 3087 3088 3090 3093 3097 3100 3106 3108 3111 3115 3124 3133 3138 3143 3144 3148 3154 3157 3159 3162 3163 3164 3165 3165 3165 3166 3166 3166 3166
3103 3100 3098 3097 3098 3098 3095 3098 3096 3098 3104 3099 3093 3091 3090 3088 3090 3090 3091 3090 3088 3088 3091 3096 3102 3103 3105 3109 3113 3121 3129 3134 3139 3143 3145 3147 3151 3154 3157 3159 3161 3162 3162 3162 3163 3164 3163 3164 3163
3099 3098 3096 3093 3097 3093 3095 3094 3092 3086 3105 3101 3096 3092 3093 3093 3094 3093 3094 3095 3095 3097 3097 3100 3104 3108 3109 3110 3118 3124 3130 3135 3138 3140 3143 3146 3150 3152 3155 3156 3157 3159 3159 3161 3161 3160 3161 3160 3160
3098 3097 3096 3091 3092 3092 3093 3095 3092 3094 3098 3100 3095 3093 3092 3093 3095 3095 3097 3098 3099 3101 3102 3105 3108 3110 3111 3115 3120 3125 3130 3133 3136 3139 3142 3145 3148 3150 3151 3153 3154 3157 3157 3157 3157 3157 3157 3156 3156
3095 3096 3093 3092 3091 3093 3091 3090 3086 3089 3092 3096 3094 3092 3093 3093 3095 3096 3098 3101 3103 3103 3105 3108 3110 3112 3114 3118 3122 3126 3130 3133 3136 3139 3141 3143 3145 3147 3149 3149 3151 3153 3153 3153 3153 3153 3152 3152 3153
3094 3093 3092 3093 3092 3090 3089 3089 3090 3092 3092 3092 3094 3093 3093 3093 3095 3097 3100 3101 3103 3105 3107 3110 3112 3113 3115 3119 3123 3126 3129 3132 3134 3136 3138 3141 3143 3145 3146 3147 3147 3149 3149 3149 3150 3149 3147 3146 3145
3091 3092 3092 3092 3092 3090 3089 3089 3086 3088 3086 3092 3092 3092 3093 3094 3096 3098 3100 3102 3103 3105 3107 3109 3111 3113 3116 3119 3122 3126 3128 3130 3133 3135 3136 3138 3140 3141 3142 3143 3144 3144 3144 3143 3144 3144 3142 3140 3135
3091 3091 3091 3091 3090 3088 3087 3090 3082 3085 3086 3088 3090 3092 3093 3094 3095 3097 3099 3101 3102 3104 3107 3110 3112 3115 3117 3120 3122 3124 3127 3129 3130 3131 3133 3134 3138 3139 3140 3139 3139 3140 3139 3138 3137 3137 3136 3134 3132
3088 3089 3089 3089 3087 3085 3081 3081 3085 3083 3087 3086 3086 3091 3093 3093 3094 3096 3099 3100 3102 3104 3106 3109 3111 3113 3115 3118 3119 3122 3126 3126 3129 3131 3130 3130 3130 3136 3136 3135 3134 3134 3133 3132 3130 3129 3128 3126 3126
3086 3087 3086 3086 3082 3080 3079 3079 3076 3078 3081 3084 3084 3085 3088 3092 3093 3094 3096 3098 3100 3102 3104 3106 3108 3111 3113 3114 3117 3119 3122 3123 3125 3125 3127 3126 3118 3112 3126 3128 3127 3127 3126 3125 3123 3122 3121 3120 3118
3082 3084 3085 3087 3086 3083 3080 3077 3075 3077 3081 3082 3084 3086 3088 3087 3090 3091 3093 3094 3097 3099 3102 3104 3106 3109 3110 3111 3112 3116 3119 3121 3120 3119 3121 3120 3121 3118 3121 3122 3121 3120 3120 3118 3117 3116 3115 3112 3110
3078 3078 3079 3083 3087 3086 3082 3075 3076 3075 3079 3081 3082 3084 3086 3087 3088 3089 3090 3091 3092 3095 3098 3100 3102 3105 3105 3106 3108 3109 3113 3116 3114 3114 3114 3115 3116 3114 3114 3115 3114 3114 3113 3112 3110 3108 3106 3103 3101
3073 3076 3077 3076 3079 3080 3072 3071 3069 3075 3076 3077 3081 3082 3083 3084 3086 3088 3088 3089 3089 3089 3092 3095 3097 3097 3100 3099 3100 3103 3103 3105 3107 3107 3108 3106 3107 3108 3110 3109 3108 3107 3106 3104 3104 3102 3099 3096 3095
3070 3070 3072 3073 3074 3074 3074 3072 3071 3076 3075 3076 3079 3078 3081 3082 3081 3082 3084 3087 3087 3081 3078 3083 3088 3091 3092 3094 3095 3096 3097 3098 3099 3102 3102 3101 3102 3103 3103 3102 3101 3100 3099 3097 3096 3092 3091 3088 3088
3064 3065 3066 3066 3071 3072 3072 3071 3071 3072 3074 3075 3075 3077 3077 3079 3079 3078 3079 3081 3084 3086 3089 3086 3087 3087 3091 3089 3089 3091 3092 3094 3095 3098 3097 3098 3097 3097 3097 3096 3095 3093 3091 3090 3088 3085 3083 3079 3081